QZS-2 (MICHIBIKI-2)

Last updated on Oct. 30, 2020, 5:57 a.m. UTC

1 42738U 17028A   20303.78452462 -.00000240  00000-0  00000-0 0  9995
2 42738  42.7728 272.5486 0745420 270.8180 275.7341  1.00251999 12523
UTC
Height (km)
Latitude
Longitude
Inclination
Orbital Period
UTC large
Height (km)
Speed (km/s)
/
Latitude / Longitude
Inclination (degrees)
Orbital Period (minutes)
Azimuth
Elevation
Range (km)
Doppler Factor
iOS Compass Heading
iOS Angle

Next 30 passes for location: Hong Kong

Rise time Rise Azimuth (degrees) Set time Set Azimuth (degrees) Duration Max altitude (degrees)

No matching passes for this satellites